Temp
10 10 11 11 11 11 12 12 13 13 13 13 13 14 15 15 15 14 14 14 14 14 15 15 15 15 15 16 16 16 16 16 15 15 16 16 16 16 16 16 16 16 16 16 17 17 16 15 15 15 15 16 16 16 16 16 16 16 16 16 15 15 15
9 10 11 11 11 11 11 12 12 13 13 13 13 14 14 15 15 15 14 14 14 14 14 15 15 15 15 15 15 15 15 15 15 15 15 16 16 16 16 16 16 15 16 16 16 17 17 16 16 15 15 16 16 17 17 17 16 16 16 16 16 16 15
9 9 10 10 10 11 11 11 11 12 12 13 13 14 14 14 14 14 14 14 14 14 14 14 14 15 15 15 15 15 15 15 15 15 15 15 16 16 15 15 16 16 16 17 16 16 17 17 16 15 15 16 16 16 17 17 17 17 17 16 17 17 16
8 9 10 10 10 11 11 11 11 11 12 13 14 14 14 14 13 14 14 14 14 14 14 14 14 15 15 15 16 15 16 15 15 15 15 15 15 15 15 15 16 16 16 16 17 17 17 17 17 17 16 16 16 16 17 17 17 17 17 17 17 17 17
8 8 9 9 10 10 11 11 11 11 11 12 13 13 13 13 13 13 14 14 14 14 14 14 14 14 15 15 15 15 15 15 15 15 15 15 15 15 15 15 16 16 16 16 17 17 17 17 17 17 17 17 17 17 16 16 17 17 17 17 16 16 17
8 8 8 9 9 10 10 10 10 11 11 12 12 13 13 13 13 13 14 14 14 14 14 14 14 14 14 15 15 15 15 15 15 15 15 15 15 15 15 15 15 16 16 16 16 17 17 16 17 17 17 17 17 17 17 16 16 17 16 17 16 15 16
7 8 8 8 9 9 10 10 10 10 10 11 11 12 12 13 13 13 13 13 13 14 13 13 14 15 15 15 15 15 15 15 15 15 15 15 15 15 15 15 15 15 16 16 16 16 16 16 16 17 17 17 17 17 17 17 16 16 16 16 16 15 16
7 7 7 7 8 9 9 9 9 10 10 10 10 11 12 13 13 13 13 13 13 13 13 13 14 15 15 15 15 15 15 15 15 15 15 15 15 15 15 15 15 15 15 15 15 15 16 16 16 16 16 17 17 17 17 17 17 17 17 17 16 16 16
7 7 7 7 7 8 8 9 9 9 10 10 10 11 12 13 13 13 13 12 12 13 13 13 14 15 15 15 15 15 15 15 15 15 15 15 15 15 15 15 15 15 15 15 16 15 15 15 16 16 16 16 17 17 17 18 18 18 18 17 17 16 16
6 6 7 7 7 7 7 8 9 9 9 10 10 11 12 13 13 13 13 12 12 12 13 13 14 15 15 15 15 15 15 15 15 15 15 15 15 15 15 15 15 15 15 15 16 15 15 16 16 15 15 15 16 17 17 18 18 18 18 18 17 17 16
6 6 6 7 7 7 7 7 8 9 9 10 11 11 12 12 13 13 13 12 12 12 12 12 13 14 15 15 14 14 14 14 15 15 15 15 15 15 15 15 15 15 15 15 15 16 16 16 16 16 16 15 15 16 16 17 17 18 18 18 17 17 17
5 6 6 6 6 6 7 7 7 8 9 9 10 11 11 11 12 12 12 12 12 12 12 12 12 13 14 14 14 14 14 14 15 14 14 14 14 14 14 14 15 15 15 15 15 15 16 16 16 16 16 16 15 15 15 16 17 17 17 17 17 17 17
5 5 5 6 6 6 6 6 7 7 8 9 9 10 10 10 11 11 11 12 12 11 12 12 12 12 13 14 14 14 14 14 15 14 14 14 14 14 15 15 15 15 15 14 14 15 15 15 16 16 16 16 15 15 15 15 16 16 17 17 17 17 17
5 5 5 5 6 6 6 6 6 7 7 8 9 9 9 9 10 10 10 11 12 11 12 12 12 12 12 12 13 13 14 14 14 14 14 14 14 15 15 15 14 15 14 14 14 14 15 15 15 15 16 15 15 15 15 15 15 16 16 16 16 16 16
5 5 5 6 6 6 6 6 6 6 7 7 8 8 8 8 9 10 10 10 11 12 12 12 12 12 12 12 12 13 13 14 14 13 13 14 14 14 15 15 14 14 14 13 14 14 14 14 15 15 15 15 15 15 15 15 15 15 16 16 16 16 16
5 5 5 6 6 6 6 6 6 6 6 7 7 8 8 8 8 9 9 10 11 12 12 12 12 12 12 12 12 12 12 13 13 13 13 13 14 14 15 15 14 13 13 13 14 14 14 14 14 15 15 15 15 15 15 15 15 15 15 16 16 16 16
6 6 6 6 6 6 6 7 7 7 7 7 7 7 7 8 8 9 9 9 10 11 12 11 11 12 12 12 12 12 12 12 12 12 13 13 13 13 13 14 14 13 13 13 14 14 14 14 14 15 15 15 15 15 15 15 15 15 15 15 15 16 16
6 6 6 6 6 7 7 7 7 7 7 7 7 7 7 7 7 8 9 9 9 10 11 11 11 11 11 11 11 12 11 11 12 12 12 12 13 13 13 13 13 13 13 13 14 14 14 14 14 14 14 14 14 14 15 15 15 15 15 15 15 15 16
6 6 6 6 6 7 7 7 7 7 7 7 7 7 7 7 7 7 8 8 9 9 9 10 11 11 11 11 11 11 11 11 12 12 12 12 12 12 12 12 13 13 13 13 14 14 13 13 14 14 14 14 14 14 14 15 15 15 15 15 15 15 15
6 6 6 7 7 7 7 7 7 7 7 7 7 7 7 7 7 7 7 8 8 8 8 9 9 9 10 10 10 11 11 11 11 11 11 12 12 12 13 13 13 13 13 13 13 14 13 13 13 14 14 14 14 14 14 14 15 15 15 15 14 15 15
6 6 6 6 7 7 7 6 7 7 7 7 7 7 7 7 7 7 7 7 7 8 8 9 9 9 9 10 10 10 10 11 11 11 11 12 12 12 13 13 13 12 12 12 13 13 13 13 13 13 14 14 14 14 14 14 14 15 14 14 14 15 15
6 6 6 6 6 6 6 6 6 6 7 7 7 7 7 7 7 7 7 7 7 7 8 8 9 9 9 10 10 10 10 10 10 11 12 12 12 12 13 13 13 13 12 12 13 13 13 13 13 13 14 14 13 14 14 14 14 14 14 14 15 15 15
5 6 6 6 6 6 6 6 6 6 6 6 6 6 7 7 8 7 7 7 7 7 7 7 8 8 8 9 9 9 9 9 10 10 10 11 11 12 12 12 12 12 12 12 13 13 13 13 13 13 13 14 13 13 14 14 14 14 14 15 15 15 15
5 5 5 6 6 5 5 6 6 6 6 6 6 6 6 7 7 7 7 7 7 7 7 7 7 7 7 8 8 8 9 9 10 10 10 10 10 11 11 12 12 11 12 12 12 12 13 13 13 13 13 13 13 13 13 13 14 14 14 14 15 15 15
5 5 5 5 5 5 5 5 6 6 6 6 6 6 6 7 7 7 7 7 7 7 7 7 7 7 7 7 8 8 8 8 9 10 10 10 9 10 10 11 12 12 12 12 12 12 13 13 13 13 13 13 13 13 13 13 14 14 14 14 14 14 15
5 5 5 5 5 5 5 5 6 6 5 5 5 6 6 7 7 7 7 7 7 7 7 7 7 7 7 8 8 8 8 8 8 9 10 10 10 9 10 10 11 11 11 12 12 12 12 13 13 13 13 13 13 13 13 13 14 14 14 14 14 14 15
4 4 5 4 5 5 5 5 6 6 6 5 5 6 6 6 7 7 7 7 7 7 7 7 7 8 8 8 8 8 8 7 7 8 8 9 9 9 9 9 10 10 10 10 11 11 11 11 12 12 12 13 13 14 14 14 14 14 14 14 14 14 15
4 4 5 4 4 4 5 5 6 6 6 5 5 5 5 6 6 6 7 7 7 7 7 7 7 8 8 8 8 8 8 8 8 8 8 8 8 9 9 9 9 9 9 9 10 10 10 10 10 11 11 11 12 13 13 14 14 14 14 14 14 14 15
4 4 4 4 4 4 4 5 6 6 6 6 5 5 5 5 5 6 6 6 6 6 7 7 7 8 8 8 8 8 8 8 8 8 8 8 8 8 8 8 9 9 9 9 9 9 9 10 10 10 10 10 10 11 11 12 13 14 14 14 14 14 15
3 3 4 4 4 4 4 4 5 6 6 5 5 5 5 5 5 5 5 5 6 6 6 7 7 8 8 8 8 8 8 8 8 8 8 8 8 8 8 8 9 9 9 10 9 9 8 8 8 9 9 9 10 10 10 11 11 12 13 14 14 14 14
3 3 3 3 3 3 3 3 4 4 4 4 4 5 4 4 5 5 6 6 6 6 7 7 8 8 8 8 9 8 8 7 7 7 7 8 8 8 8 8 8 9 9 9 9 9 8 8 8 8 8 9 9 10 10 10 10 11 11 12 12 13 14
3 3 3 3 3 3 3 3 3 3 4 4 4 4 4 4 4 4 5 6 6 6 7 7 8 8 8 8 9 9 8 8 7 7 8 8 8 9 9 8 9 9 9 9 9 9 9 8 8 8 8 8 9 9 10 10 10 10 10 11 11 11 12
3 3 3 3 2 3 3 3 3 3 4 3 3 3 4 3 3 4 4 4 5 6 6 7 7 8 8 8 8 9 9 9 9 9 9 9 10 10 10 10 9 9 10 10 10 10 10 9 9 8 8 8 8 9 9 10 10 10 10 10 11 11 11
3 3 3 2 2 3 3 2 2 3 4 4 3 3 3 3 3 3 3 3 4 5 6 6 6 7 7 8 8 8 9 9 9 9 10 10 10 10 9 9 7 8 10 11 10 10 10 10 10 9 9 8 8 8 8 9 9 9 9 10 10 10 10
2 3 2 2 3 3 3 3 3 3 3 4 4 3 3 3 3 3 3 3 3 4 5 5 6 6 7 7 7 8 8 8 9 9 9 9 9 9 8 8 8 8 10 10 9 10 10 10 9 9 9 9 8 8 8 8 9 9 9 9 10 10 10
2 3 3 3 3 3 3 3 3 3 3 4 4 4 4 4 4 4 3 3 3 3 3 4 5 6 6 6 7 7 7 8 8 9 9 9 9 8 8 8 9 9 9 8 8 8 8 8 8 7 8 8 8 7 8 8 8 8 8 8 8 9 9
3 3 3 3 3 3 3 3 3 3 3 4 4 4 4 4 4 4 4 3 3 3 3 3 4 5 6 6 6 7 7 7 8 8 8 8 8 7 8 8 9 9 9 8 7 7 7 7 7 6 6 6 7 7 7 7 7 7 7 7 8 8 8
Height
1511 1510 1510 1510 1509 1508 1509 1511 1513 1516 1519 1522 1523 1523 1525 1527 1528 1531 1533 1535 1536 1536 1537 1538 1540 1542 1545 1548 1549 1551 1553 1554 1555 1556 1557 1558 1559 1561 1562 1563 1563 1564 1565 1565 1565 1566 1567 1569 1570 1571 1571 1571 1572 1572 1572 1572 1572 1573 1573 1574 1574 1574 1574
1512 1510 1510 1510 1510 1510 1510 1510 1511 1514 1517 1520 1522 1523 1525 1526 1528 1530 1532 1534 1536 1537 1537 1538 1539 1540 1543 1545 1546 1548 1551 1552 1553 1554 1555 1556 1558 1560 1561 1562 1563 1564 1564 1565 1565 1565 1566 1567 1569 1570 1570 1570 1570 1571 1571 1571 1572 1572 1572 1573 1573 1573 1574
1513 1511 1510 1510 1510 1510 1509 1508 1510 1513 1515 1518 1521 1523 1524 1526 1528 1530 1531 1533 1535 1537 1538 1537 1536 1538 1540 1542 1544 1546 1548 1550 1552 1553 1554 1555 1556 1558 1560 1561 1562 1564 1564 1564 1565 1565 1566 1566 1567 1568 1568 1568 1569 1570 1570 1571 1571 1571 1572 1572 1572 1573 1573
1513 1512 1510 1510 1509 1509 1509 1509 1509 1511 1513 1516 1519 1521 1523 1526 1527 1529 1530 1532 1533 1536 1537 1536 1535 1536 1539 1541 1543 1545 1547 1548 1550 1552 1553 1554 1555 1557 1558 1560 1561 1563 1563 1564 1564 1565 1565 1565 1566 1566 1566 1567 1568 1569 1569 1570 1571 1571 1571 1571 1571 1572 1572
1514 1513 1511 1510 1509 1509 1509 1510 1510 1511 1513 1515 1518 1521 1523 1525 1526 1527 1529 1530 1532 1534 1536 1536 1535 1536 1538 1540 1542 1543 1545 1547 1548 1550 1552 1553 1554 1556 1557 1558 1560 1561 1562 1563 1564 1564 1565 1565 1566 1566 1566 1567 1568 1568 1568 1569 1570 1570 1570 1570 1571 1571 1571
1514 1514 1512 1510 1510 1509 1509 1510 1511 1512 1513 1515 1517 1520 1523 1524 1525 1526 1527 1528 1530 1532 1535 1535 1534 1535 1537 1539 1540 1542 1544 1545 1547 1548 1550 1551 1553 1554 1556 1557 1558 1560 1561 1562 1563 1564 1564 1565 1565 1566 1566 1567 1567 1567 1567 1568 1569 1569 1569 1570 1570 1570 1570
1514 1514 1513 1511 1510 1510 1510 1510 1511 1512 1513 1515 1517 1519 1521 1522 1524 1525 1525 1527 1528 1531 1533 1533 1532 1533 1535 1537 1539 1541 1543 1544 1545 1547 1548 1550 1551 1553 1554 1555 1556 1558 1559 1561 1562 1562 1563 1564 1565 1565 1566 1566 1567 1567 1567 1568 1568 1568 1568 1569 1569 1569 1569
1514 1514 1513 1512 1511 1511 1511 1511 1512 1512 1513 1515 1516 1517 1518 1520 1522 1523 1524 1526 1529 1531 1531 1529 1530 1531 1533 1535 1537 1539 1541 1543 1544 1545 1547 1548 1549 1551 1552 1553 1555 1556 1557 1559 1560 1561 1562 1563 1564 1565 1565 1566 1566 1566 1566 1567 1567 1567 1568 1568 1568 1568 1568
1514 1513 1513 1513 1512 1511 1511 1511 1511 1512 1512 1513 1514 1515 1516 1518 1520 1521 1523 1526 1528 1529 1529 1528 1528 1530 1532 1534 1536 1537 1539 1541 1542 1544 1545 1546 1547 1549 1550 1552 1553 1554 1555 1557 1558 1559 1560 1561 1562 1563 1564 1565 1565 1565 1565 1565 1565 1565 1566 1567 1567 1566 1567
1513 1513 1512 1512 1511 1511 1511 1511 1511 1511 1511 1512 1512 1513 1514 1516 1519 1521 1523 1525 1526 1527 1528 1527 1527 1528 1530 1532 1534 1536 1537 1539 1540 1542 1543 1545 1546 1546 1548 1550 1551 1552 1553 1554 1556 1557 1558 1559 1560 1561 1562 1563 1564 1564 1564 1563 1563 1564 1564 1565 1566 1566 1565
1512 1512 1511 1511 1511 1510 1511 1511 1511 1510 1510 1510 1511 1511 1513 1515 1518 1520 1522 1523 1524 1525 1526 1525 1525 1526 1528 1530 1532 1534 1535 1536 1538 1540 1541 1543 1543 1544 1545 1547 1549 1550 1551 1552 1553 1554 1555 1556 1557 1559 1559 1561 1562 1563 1563 1562 1562 1562 1563 1563 1564 1565 1564
1511 1510 1510 1510 1510 1509 1510 1510 1510 1509 1509 1509 1510 1511 1512 1514 1516 1518 1519 1521 1522 1523 1524 1525 1525 1525 1526 1528 1530 1531 1533 1534 1536 1538 1539 1540 1541 1542 1543 1544 1546 1547 1548 1550 1551 1552 1553 1554 1555 1556 1557 1558 1559 1560 1561 1561 1560 1561 1562 1562 1562 1563 1563
1509 1509 1508 1508 1508 1508 1508 1508 1508 1508 1508 1508 1509 1510 1512 1513 1514 1515 1517 1518 1520 1521 1523 1523 1523 1523 1524 1526 1528 1529 1531 1532 1534 1535 1537 1538 1539 1540 1541 1542 1543 1544 1546 1547 1548 1549 1550 1551 1552 1553 1554 1555 1556 1557 1558 1559 1558 1558 1559 1560 1560 1561 1562
1507 1507 1507 1507 1506 1506 1506 1506 1506 1506 1507 1507 1508 1510 1511 1512 1513 1513 1514 1516 1517 1519 1520 1521 1521 1521 1523 1525 1526 1527 1528 1530 1531 1533 1534 1536 1537 1537 1539 1540 1541 1542 1543 1544 1546 1547 1548 1548 1549 1550 1551 1552 1553 1554 1555 1555 1556 1556 1557 1557 1558 1558 1559
1506 1506 1506 1505 1505 1505 1505 1505 1505 1505 1505 1506 1507 1508 1510 1511 1511 1511 1512 1513 1514 1516 1517 1518 1519 1519 1521 1522 1523 1525 1526 1527 1529 1531 1532 1533 1534 1535 1536 1537 1539 1540 1541 1542 1543 1544 1545 1546 1547 1548 1549 1549 1550 1551 1552 1552 1553 1553 1554 1554 1555 1555 1555
1506 1505 1504 1505 1504 1504 1504 1504 1503 1503 1504 1505 1506 1507 1508 1509 1509 1510 1510 1511 1511 1513 1514 1515 1516 1517 1519 1520 1521 1522 1524 1525 1527 1528 1529 1530 1531 1532 1533 1534 1536 1537 1539 1539 1539 1541 1542 1543 1544 1545 1546 1547 1547 1548 1549 1550 1550 1550 1551 1551 1552 1552 1553
1506 1505 1504 1504 1504 1504 1503 1503 1502 1503 1503 1503 1504 1505 1506 1506 1507 1507 1508 1508 1509 1510 1511 1513 1514 1515 1517 1518 1519 1521 1522 1523 1525 1526 1526 1527 1528 1529 1530 1531 1532 1534 1535 1536 1537 1538 1539 1539 1541 1542 1543 1544 1545 1545 1546 1547 1547 1547 1548 1548 1549 1550 1550
1506 1505 1504 1504 1503 1503 1503 1502 1502 1502 1502 1502 1503 1503 1504 1504 1505 1505 1505 1506 1507 1508 1509 1511 1512 1513 1515 1516 1517 1519 1520 1521 1522 1523 1524 1525 1526 1526 1527 1528 1530 1531 1532 1533 1534 1535 1536 1536 1537 1538 1539 1541 1542 1543 1543 1543 1544 1544 1545 1545 1545 1546 1547
1505 1505 1505 1504 1504 1503 1503 1502 1502 1502 1501 1501 1501 1502 1502 1502 1503 1503 1503 1504 1506 1507 1507 1509 1510 1512 1513 1514 1516 1517 1518 1519 1520 1520 1521 1523 1524 1524 1525 1526 1527 1528 1529 1530 1531 1532 1533 1534 1534 1535 1536 1537 1539 1540 1540 1540 1541 1542 1542 1542 1542 1543 1543
1504 1504 1504 1504 1504 1503 1503 1502 1502 1502 1501 1500 1500 1500 1500 1500 1500 1501 1501 1502 1503 1505 1506 1507 1509 1510 1512 1513 1515 1516 1516 1517 1518 1518 1519 1520 1521 1521 1522 1523 1524 1526 1527 1527 1529 1529 1531 1532 1531 1532 1533 1534 1535 1536 1537 1537 1538 1539 1539 1539 1539 1539 1540
1504 1504 1504 1504 1504 1503 1503 1502 1501 1501 1500 1499 1499 1499 1499 1499 1499 1499 1499 1500 1501 1502 1504 1506 1507 1509 1510 1512 1513 1514 1514 1515 1515 1516 1516 1516 1517 1518 1519 1520 1521 1522 1524 1525 1526 1527 1528 1529 1528 1528 1529 1530 1531 1532 1533 1534 1535 1536 1536 1537 1537 1537 1537
1504 1504 1503 1503 1504 1503 1502 1502 1501 1500 1499 1498 1498 1497 1497 1497 1497 1498 1498 1498 1499 1500 1501 1503 1505 1506 1508 1509 1511 1511 1512 1512 1512 1512 1513 1513 1514 1515 1516 1517 1518 1519 1521 1522 1523 1524 1524 1525 1525 1526 1526 1527 1528 1529 1529 1530 1532 1533 1534 1534 1534 1534 1535
1504 1503 1503 1503 1503 1502 1502 1501 1500 1499 1498 1497 1496 1496 1496 1496 1496 1497 1497 1497 1498 1499 1500 1501 1501 1502 1503 1504 1505 1507 1508 1509 1509 1509 1510 1510 1511 1512 1513 1514 1515 1516 1517 1518 1519 1520 1521 1522 1522 1523 1523 1524 1525 1526 1526 1527 1529 1530 1531 1531 1531 1532 1532
1504 1503 1503 1503 1503 1502 1501 1500 1499 1498 1497 1496 1495 1495 1495 1495 1495 1496 1496 1496 1497 1497 1498 1498 1498 1498 1499 1500 1501 1502 1504 1506 1507 1508 1509 1508 1508 1509 1509 1510 1512 1513 1514 1515 1516 1517 1518 1519 1519 1520 1521 1522 1523 1523 1523 1524 1525 1526 1527 1528 1528 1528 1528
1504 1504 1504 1503 1502 1501 1500 1499 1499 1498 1497 1495 1494 1494 1494 1495 1495 1495 1495 1496 1496 1495 1495 1496 1496 1496 1497 1497 1499 1500 1501 1504 1505 1506 1507 1507 1507 1506 1506 1507 1508 1509 1510 1511 1512 1513 1514 1515 1516 1517 1517 1518 1519 1519 1520 1521 1522 1522 1523 1524 1524 1524 1524
1504 1504 1504 1503 1501 1501 1500 1499 1498 1496 1496 1495 1494 1494 1494 1494 1494 1494 1494 1494 1494 1493 1494 1495 1495 1495 1496 1496 1497 1498 1500 1501 1502 1503 1504 1505 1505 1505 1504 1505 1505 1506 1507 1508 1509 1510 1511 1511 1512 1513 1514 1514 1515 1515 1516 1516 1517 1518 1519 1520 1520 1520 1520
1504 1504 1503 1502 1502 1501 1499 1498 1496 1496 1495 1495 1494 1493 1493 1493 1493 1493 1493 1493 1493 1493 1493 1493 1494 1494 1495 1495 1496 1497 1498 1499 1499 1500 1501 1502 1502 1503 1503 1503 1504 1504 1504 1505 1506 1507 1508 1508 1509 1509 1509 1510 1510 1511 1511 1511 1512 1513 1514 1514 1515 1515 1516
1504 1503 1502 1502 1502 1501 1499 1497 1496 1495 1495 1495 1494 1493 1493 1493 1493 1492 1492 1492 1492 1492 1492 1492 1492 1493 1493 1494 1494 1495 1496 1497 1497 1497 1498 1498 1499 1500 1500 1501 1501 1502 1502 1502 1503 1503 1504 1506 1506 1507 1507 1506 1506 1506 1506 1506 1507 1508 1509 1509 1509 1510 1511
1504 1503 1502 1502 1502 1500 1498 1497 1496 1495 1495 1494 1494 1493 1493 1492 1492 1492 1491 1491 1491 1491 1491 1491 1491 1491 1492 1492 1493 1494 1494 1495 1495 1495 1496 1497 1497 1498 1498 1498 1499 1499 1500 1500 1501 1501 1501 1502 1502 1503 1504 1503 1503 1503 1503 1503 1503 1503 1504 1504 1504 1505 1506
1504 1504 1503 1502 1501 1500 1499 1498 1496 1495 1495 1494 1494 1493 1493 1492 1492 1491 1491 1490 1490 1490 1490 1490 1490 1490 1490 1490 1491 1491 1492 1493 1493 1494 1495 1495 1495 1496 1496 1496 1497 1498 1498 1499 1499 1499 1498 1498 1498 1499 1499 1499 1499 1499 1499 1499 1499 1498 1498 1498 1499 1500 1500
1505 1504 1503 1502 1501 1500 1499 1499 1497 1496 1496 1495 1494 1493 1493 1492 1492 1491 1490 1490 1490 1489 1489 1489 1489 1489 1489 1489 1489 1489 1490 1492 1493 1493 1493 1494 1494 1494 1494 1494 1493 1494 1494 1495 1495 1495 1494 1493 1493 1494 1495 1495 1495 1494 1495 1495 1495 1495 1494 1494 1494 1494 1494
1504 1504 1503 1502 1501 1500 1500 1499 1498 1497 1497 1496 1495 1494 1493 1493 1492 1491 1490 1490 1490 1489 1489 1488 1488 1488 1488 1488 1488 1488 1488 1490 1490 1490 1490 1491 1491 1491 1491 1491 1490 1489 1489 1490 1490 1490 1490 1489 1489 1489 1490 1490 1490 1491 1492 1492 1492 1492 1491 1491 1491 1490 1490
1504 1504 1503 1502 1502 1501 1500 1499 1498 1498 1498 1497 1495 1494 1493 1493 1493 1492 1491 1490 1489 1489 1488 1488 1487 1487 1487 1487 1487 1487 1487 1487 1487 1487 1487 1487 1487 1487 1487 1487 1487 1486 1485 1485 1485 1485 1484 1484 1484 1484 1484 1485 1486 1487 1488 1488 1488 1487 1488 1488 1488 1487 1486
1505 1504 1503 1502 1502 1502 1501 1499 1498 1498 1498 1497 1496 1494 1493 1494 1494 1493 1492 1491 1490 1489 1488 1488 1487 1486 1486 1486 1485 1485 1485 1485 1485 1485 1485 1485 1485 1485 1484 1485 1485 1483 1482 1481 1481 1480 1479 1479 1478 1478 1478 1479 1480 1481 1482 1482 1482 1483 1483 1483 1484 1484 1483
1505 1505 1504 1503 1503 1502 1501 1500 1499 1498 1498 1498 1497 1496 1495 1494 1495 1494 1494 1492 1491 1490 1489 1488 1487 1486 1485 1485 1484 1484 1483 1483 1482 1482 1482 1482 1482 1482 1481 1481 1481 1480 1479 1478 1477 1476 1475 1474 1473 1473 1473 1474 1475 1475 1476 1477 1477 1478 1479 1480 1480 1480 1480
1506 1505 1504 1504 1504 1503 1502 1501 1500 1499 1498 1498 1497 1497 1496 1496 1495 1495 1494 1493 1492 1491 1490 1489 1488 1486 1485 1484 1483 1483 1482 1481 1480 1480 1479 1479 1479 1479 1478 1478 1477 1477 1476 1475 1474 1473 1471 1470 1469 1469 1469 1470 1471 1471 1472 1472 1473 1474 1474 1475 1476 1476 1475
1507 1506 1506 1505 1504 1503 1502 1501 1501 1500 1499 1498 1498 1497 1497 1496 1496 1495 1494 1494 1493 1492 1491 1491 1489 1487 1486 1485 1483 1482 1481 1480 1479 1478 1478 1477 1477 1476 1476 1475 1474 1474 1473 1473 1472 1471 1469 1468 1467 1467 1467 1467 1468 1468 1468 1468 1469 1470 1470 1471 1471 1471 1471
Wind_Speed
7 4 3 4 8 16 20 24 28 30 30 29 29 30 30 30 30 30 28 28 25 23 26 27 23 23 22 19 19 18 18 18 19 20 20 20 19 18 17 16 13 11 9 8 7 6 7 8 8 9 7 5 4 4 3 4 5 5 4 4 5 5 6
8 6 2 4 8 11 14 19 25 29 30 28 26 28 29 29 29 29 30 28 26 22 22 24 25 24 23 20 21 21 18 17 18 18 18 19 20 19 18 17 14 11 10 9 9 9 8 8 9 11 9 6 5 4 2 2 3 5 5 4 4 4 6
8 7 2 3 5 9 14 17 21 26 29 28 26 25 26 27 27 28 30 29 27 23 17 18 25 27 26 25 25 24 21 19 18 17 16 17 19 19 16 15 14 12 11 10 10 10 10 10 8 9 9 7 6 5 4 4 4 4 5 5 4 4 5
7 7 5 3 1 5 11 13 15 22 29 34 34 29 25 25 24 25 29 29 29 26 19 16 23 27 27 26 25 24 24 22 19 17 16 15 16 17 15 14 13 12 11 11 10 10 10 10 9 8 7 6 6 6 6 7 6 5 6 6 5 5 5
6 5 5 4 2 3 7 11 14 19 25 33 37 32 26 25 23 22 25 28 28 27 21 17 19 21 21 24 25 24 23 22 21 20 18 16 16 15 15 14 14 12 11 11 10 9 10 9 9 8 7 6 7 7 8 8 8 8 9 9 8 7 7
5 5 5 3 4 3 6 8 11 15 18 26 33 30 24 23 21 18 20 23 24 25 23 18 18 19 19 22 23 23 23 22 21 21 19 18 17 16 14 14 15 13 12 12 11 10 10 10 9 9 8 8 8 7 7 8 9 9 10 11 10 9 9
4 4 4 3 3 4 5 5 8 12 14 18 23 24 22 19 17 15 15 17 19 24 23 19 19 20 20 19 20 21 23 22 21 21 20 19 19 18 16 15 15 15 14 13 12 12 12 11 11 10 10 9 10 10 9 9 9 9 10 11 12 12 11
3 3 3 3 3 2 4 5 7 11 14 16 18 22 26 24 19 15 14 14 16 21 21 18 19 21 20 18 19 21 22 23 23 22 22 21 21 20 19 18 18 17 17 16 15 15 14 13 12 11 11 11 11 12 11 11 11 11 11 11 12 13 13
4 3 3 4 3 2 2 4 6 8 12 17 18 23 30 29 24 20 18 17 16 17 18 18 18 20 21 19 19 21 21 23 25 25 25 24 23 23 22 21 21 20 19 19 19 17 17 16 14 13 13 13 13 13 12 12 12 12 12 12 13 13 13
4 4 5 5 5 4 3 4 6 7 9 14 18 23 30 32 30 27 27 26 21 18 17 16 17 20 21 21 20 21 22 23 24 25 27 26 26 26 25 24 23 22 21 22 22 21 21 22 20 19 17 15 15 15 14 13 12 12 11 11 12 12 13
4 5 5 6 6 6 5 4 6 8 9 11 15 20 27 33 34 34 35 34 27 24 20 15 15 18 21 22 23 22 22 22 23 23 25 26 26 26 25 24 24 24 23 24 24 23 24 25 24 24 22 20 18 18 17 16 15 13 11 11 11 11 11
5 5 5 6 7 7 7 6 6 8 10 11 13 16 20 26 30 33 38 39 32 27 24 18 15 17 19 21 23 23 22 23 23 22 23 24 24 24 23 23 24 24 24 24 24 25 24 24 25 26 26 25 22 22 21 19 19 17 13 12 11 11 11
6 5 5 6 6 7 8 8 8 9 11 11 12 13 15 19 23 25 33 40 37 29 26 23 19 17 17 19 21 22 23 24 24 23 23 22 22 23 24 24 24 24 23 22 22 24 25 25 25 25 26 26 25 25 24 22 22 21 17 15 14 13 12
7 6 5 6 6 6 7 8 9 10 11 13 14 14 13 14 18 20 24 32 36 32 28 25 21 18 17 18 20 21 22 23 23 23 23 22 22 22 24 25 24 24 22 20 20 22 23 24 24 23 24 25 24 25 25 23 22 22 20 18 17 16 15
6 6 5 5 5 5 6 6 8 9 10 12 14 16 14 12 15 18 18 22 28 31 30 27 25 23 21 20 20 20 22 23 22 22 23 23 23 22 22 23 23 21 20 20 22 22 21 22 24 23 23 23 23 23 24 23 22 20 20 18 17 17 16
6 6 5 4 4 4 4 5 6 6 7 9 11 14 17 14 15 18 19 20 23 27 28 27 26 25 24 22 21 20 20 21 22 23 24 24 22 21 22 22 21 20 19 21 24 24 21 21 23 24 23 22 22 23 24 25 24 21 19 18 17 16 16
5 5 4 3 3 3 3 3 4 4 5 6 7 10 13 14 16 19 21 21 21 23 25 25 26 26 24 23 23 22 20 19 20 21 23 24 23 21 21 21 21 20 20 22 24 24 22 22 22 23 23 21 22 23 24 25 26 24 22 19 17 16 16
4 3 3 2 3 3 3 4 4 4 5 5 6 7 9 10 12 17 21 22 21 21 23 24 25 26 24 24 24 24 22 21 21 21 20 21 21 20 19 19 19 19 19 21 22 21 21 22 22 22 21 20 20 20 22 24 25 24 23 21 19 18 17
3 2 2 2 3 3 4 4 4 5 6 6 7 8 9 8 9 12 16 19 19 19 21 22 23 24 24 25 25 25 24 23 23 23 21 19 18 18 18 19 18 18 18 20 21 20 20 21 22 21 20 20 20 19 20 23 24 24 23 22 21 19 19
4 2 1 1 2 3 4 4 4 5 6 7 8 9 9 8 9 9 10 12 14 15 17 19 21 22 22 23 24 24 24 23 21 20 20 21 21 20 20 20 19 18 19 19 20 20 20 21 21 21 21 21 21 21 21 22 23 23 22 21 20 19 19
4 3 2 2 3 4 5 5 6 6 6 7 7 8 9 9 9 9 9 9 10 11 14 16 18 19 19 20 21 20 20 21 22 21 21 23 25 24 24 24 22 20 19 19 19 19 20 20 20 21 22 21 22 22 22 21 21 21 20 19 18 17 17
4 3 2 3 4 6 6 6 6 6 6 7 8 9 9 8 8 9 8 9 9 11 13 15 17 18 19 19 19 19 17 17 21 26 27 26 26 26 26 26 26 24 21 20 20 21 22 22 22 21 20 19 19 21 21 21 20 19 18 18 18 17 17
4 4 3 4 6 7 7 6 5 5 6 7 6 8 9 8 6 7 8 8 9 9 10 12 16 20 22 22 21 19 17 16 17 21 23 25 27 27 26 25 25 25 24 23 24 24 25 25 25 24 22 20 18 18 19 19 18 18 17 17 18 17 17
4 5 5 6 7 8 7 6 5 5 7 7 4 5 7 6 4 5 6 5 5 7 10 12 15 18 21 23 24 22 18 15 16 17 17 19 22 25 27 27 25 25 25 25 25 26 26 27 27 27 26 25 24 22 21 20 20 20 18 18 19 20 21
4 5 6 6 8 8 7 6 5 5 5 5 3 2 5 4 3 3 3 4 6 9 11 13 14 15 16 19 21 22 18 13 14 16 16 17 17 19 22 26 27 27 28 28 27 27 28 29 29 30 29 29 29 28 27 27 26 25 23 21 20 22 25
4 5 6 8 8 8 7 6 5 4 3 4 4 1 5 5 5 4 5 6 9 10 10 11 11 11 12 13 15 18 17 13 12 14 15 16 16 16 17 18 21 23 25 25 25 25 26 28 29 30 31 32 32 32 32 31 31 30 29 27 25 25 27
5 6 7 8 7 7 7 6 4 2 2 4 5 3 3 5 5 6 6 7 9 9 9 10 9 8 9 10 11 13 13 11 11 12 12 14 15 15 16 15 15 17 18 19 19 19 20 22 23 24 27 29 32 34 35 35 34 34 33 33 33 33 33
5 6 6 7 7 7 7 6 3 2 2 4 5 5 5 3 3 5 5 6 7 8 8 8 8 8 7 8 8 8 8 8 9 10 10 11 12 13 14 14 15 15 15 16 18 19 19 19 19 19 20 22 25 27 30 33 35 36 36 37 37 38 38
4 4 5 7 7 7 6 6 4 2 2 3 4 5 5 5 4 3 3 4 5 7 8 8 9 9 9 8 8 7 6 7 7 7 8 10 11 11 12 12 13 14 14 15 16 18 21 22 20 18 19 21 22 22 24 27 31 35 36 37 39 39 39
5 6 7 7 7 7 7 6 5 4 3 3 3 3 4 4 4 3 2 1 2 3 4 5 6 6 7 8 9 9 8 7 7 7 8 9 9 10 11 12 13 13 14 16 17 18 22 24 21 18 20 22 23 23 24 24 26 30 33 35 37 38 39
6 7 7 7 8 8 8 7 6 5 5 4 4 3 3 3 3 3 2 1 1 2 2 2 2 1 0 2 4 6 6 5 6 7 7 8 9 9 11 13 15 15 14 16 19 21 24 26 23 19 18 21 22 23 23 23 23 25 28 31 34 35 37
5 6 7 7 8 8 8 7 7 6 5 5 5 4 3 3 3 3 3 3 2 3 4 5 5 4 4 2 1 2 3 3 5 6 6 7 9 9 10 12 14 15 15 15 18 21 24 27 27 24 22 21 22 23 22 21 22 23 23 25 27 30 32
5 6 6 6 7 8 8 7 7 7 6 5 5 4 4 3 4 4 4 4 4 4 5 7 8 7 7 6 5 5 5 5 6 7 8 9 9 10 11 11 12 14 16 16 17 19 21 24 27 29 28 25 24 23 21 21 24 24 24 24 24 26 28
5 5 6 6 7 7 8 8 8 7 6 5 5 5 4 4 4 4 4 4 4 5 5 7 9 9 9 9 9 9 9 9 10 10 11 11 11 11 12 11 9 12 16 18 19 21 22 24 25 28 30 29 27 26 26 26 28 27 26 26 25 25 26
5 5 5 7 8 8 8 8 8 8 6 5 5 5 5 4 4 4 4 4 5 5 5 6 7 8 9 10 11 11 11 12 13 13 13 13 13 12 12 12 12 14 16 17 19 21 22 24 26 27 29 30 30 31 31 31 31 30 28 26 25 25 26
5 5 6 8 9 9 9 8 9 9 8 7 6 6 6 5 5 5 5 5 5 5 5 5 6 6 6 7 8 9 10 11 12 12 13 13 13 13 14 15 16 15 14 15 18 19 19 20 22 22 23 24 25 27 29 31 31 31 29 27 26 27 28
6 6 7 8 9 10 10 10 9 9 9 8 8 7 7 7 7 6 6 6 6 7 6 6 7 7 5 4 4 5 6 7 8 10 10 11 11 12 13 15 15 13 11 12 15 16 16 16 16 16 16 16 16 18 22 25 28 28 28 27 27 28 29
Wind_Direction
351 314 277 259 207 180 176 185 189 194 201 205 207 209 211 215 219 221 219 215 211 207 204 201 197 196 195 195 200 201 202 205 207 209 210 209 211 216 217 218 220 218 218 222 232 227 197 192 204 211 204 189 208 237 234 225 230 233 238 236 233 238 247
354 343 269 232 228 198 172 175 185 192 198 200 201 205 208 212 219 222 221 218 213 211 209 203 200 197 192 194 199 198 198 202 207 209 210 209 211 219 224 225 227 230 233 236 238 245 244 224 205 207 207 199 207 235 279 267 238 227 226 230 232 235 243
350 354 324 236 230 212 193 175 175 187 194 195 199 207 212 215 218 218 219 218 212 213 217 204 200 199 196 198 202 202 203 204 206 209 210 211 212 216 219 221 224 225 228 237 238 242 252 251 235 216 209 211 222 239 272 289 274 245 231 222 226 237 240
349 357 339 283 211 198 206 188 174 186 194 197 201 209 216 220 223 218 217 217 212 213 220 208 201 201 202 204 205 205 208 207 208 211 213 215 214 213 215 215 219 223 223 231 239 243 246 251 257 253 233 223 229 235 254 270 270 259 251 236 231 237 240
346 352 350 295 252 148 188 200 190 186 190 196 202 210 216 222 225 222 218 218 214 216 222 215 203 198 201 208 208 207 210 210 211 214 216 220 220 218 220 220 221 225 228 231 236 241 245 247 253 259 252 244 243 240 244 255 263 263 258 252 244 238 241
344 338 354 328 268 209 181 196 199 190 186 193 202 209 212 213 219 222 219 218 218 223 225 217 207 202 203 210 213 212 215 215 215 218 219 221 223 222 222 224 225 227 230 233 235 238 242 246 249 254 255 249 248 247 237 239 257 266 260 259 253 242 251
342 328 331 341 308 245 212 204 208 207 197 191 197 205 207 207 212 215 214 217 222 228 228 219 213 214 213 216 220 220 221 223 222 222 224 225 226 225 225 227 227 229 232 233 235 238 239 242 245 250 254 251 247 250 245 236 242 249 252 259 256 247 256
318 317 309 313 324 284 239 216 207 212 211 204 204 210 213 216 220 219 219 224 227 231 232 225 217 219 219 221 226 228 227 229 231 230 231 234 234 232 232 235 236 236 238 238 238 240 240 241 244 247 251 254 253 251 249 246 244 242 243 248 253 256 261
300 294 285 280 286 298 278 230 216 208 210 215 216 214 214 219 224 228 235 244 243 240 238 229 223 224 226 225 230 233 234 233 235 236 238 241 243 241 239 239 242 243 244 245 244 243 242 240 241 244 247 251 255 256 253 251 249 247 244 238 242 255 261
298 282 270 268 270 269 273 251 236 221 210 218 221 216 214 217 222 227 238 247 251 252 249 234 226 229 231 231 232 234 235 235 235 237 240 242 244 246 245 243 244 246 247 250 249 246 246 245 243 243 245 247 251 256 258 256 252 250 248 239 236 245 252
295 279 265 259 262 260 259 259 250 237 222 216 219 219 217 220 224 228 235 242 248 254 255 243 228 230 233 234 233 232 233 234 235 236 238 240 243 246 248 246 246 246 246 247 249 249 250 252 249 246 246 247 248 251 256 260 259 255 252 247 239 238 243
298 286 275 259 256 256 254 252 250 247 237 225 220 220 220 223 228 230 231 235 243 249 252 249 237 231 233 234 234 233 233 234 236 236 236 236 240 243 245 246 247 247 245 243 244 247 251 253 253 250 249 250 249 249 251 255 260 257 252 251 248 243 242
301 292 285 272 259 254 253 251 247 245 241 236 230 225 223 224 227 227 226 229 238 245 246 245 241 233 231 234 235 235 235 237 239 236 235 235 237 241 245 248 249 248 244 240 240 245 249 251 251 250 249 249 249 249 249 250 254 256 252 251 251 249 247
308 299 288 280 271 262 260 255 250 246 239 237 235 231 231 233 231 228 222 225 232 239 240 239 238 235 232 232 234 235 236 239 241 237 234 236 237 241 246 246 247 246 243 239 238 241 245 248 249 249 248 247 246 247 249 247 249 254 254 249 249 248 246
316 309 299 289 280 270 265 259 253 249 242 239 238 234 232 237 239 236 230 225 228 234 237 237 236 236 236 237 238 239 238 238 241 238 236 237 240 243 247 246 242 240 239 238 239 240 241 242 245 247 247 245 243 243 246 246 247 251 253 249 245 246 245
321 318 316 305 296 283 273 270 263 257 248 241 242 239 235 236 240 241 241 237 230 231 234 237 236 232 232 235 236 238 240 238 240 241 238 238 240 243 247 246 240 235 232 236 242 244 240 238 240 243 244 243 243 245 248 249 248 248 250 249 244 243 245
334 333 332 326 325 315 299 295 285 275 261 246 244 244 241 239 240 239 241 243 240 236 236 238 236 231 229 232 232 233 235 235 237 240 239 237 237 239 242 242 241 237 233 237 245 247 244 241 239 238 240 240 243 248 251 251 249 248 249 250 245 242 242
341 341 348 353 349 339 324 314 297 282 274 260 252 251 247 243 242 239 238 240 241 242 242 240 237 236 235 235 235 235 236 235 235 237 237 236 235 234 235 237 241 241 239 240 243 242 241 243 241 239 238 238 239 245 249 249 249 250 251 250 245 241 240
335 338 3 357 351 341 321 306 293 286 281 269 255 252 249 244 244 243 240 241 240 240 241 238 236 238 240 240 241 241 240 238 236 237 238 235 233 233 233 236 239 240 240 241 241 239 239 240 241 239 237 237 237 237 243 248 249 250 252 251 248 243 241
346 340 329 345 347 336 324 312 304 294 282 275 267 262 260 253 246 244 243 243 241 238 238 236 232 233 235 238 240 242 242 240 237 236 236 235 235 235 237 240 242 240 238 238 237 236 237 237 236 237 236 236 238 237 240 245 248 248 248 248 249 247 246
360 348 345 9 344 322 322 315 303 287 268 269 272 264 263 264 258 249 244 244 241 235 232 232 234 234 234 235 237 237 238 238 238 239 241 242 240 239 239 239 240 239 238 240 239 235 234 234 232 235 237 236 237 238 239 240 240 242 243 243 244 245 246
359 11 39 14 331 313 317 310 298 291 274 269 265 250 244 250 256 252 244 241 238 230 222 220 224 227 227 229 233 235 236 236 238 242 245 247 246 243 242 241 241 242 239 237 237 234 233 234 232 232 234 234 236 238 239 238 236 237 240 241 241 242 243
357 12 13 343 321 317 319 310 299 304 301 294 276 244 228 224 239 249 241 234 232 229 225 221 221 220 216 214 217 223 231 236 239 241 243 245 246 245 245 245 245 247 245 240 238 237 237 238 239 238 234 231 232 234 234 236 235 235 237 240 241 240 240
354 355 346 331 327 328 325 314 308 316 318 319 306 239 220 208 214 238 237 227 221 220 219 221 228 226 218 213 212 212 218 231 237 240 243 245 247 248 250 250 251 252 253 252 250 248 246 245 246 247 244 241 238 236 235 237 238 236 237 240 244 245 245
336 332 330 332 335 336 337 333 327 328 331 336 341 201 190 174 172 205 201 186 199 213 216 222 234 237 227 223 222 221 223 231 234 236 242 246 247 250 252 254 256 258 260 261 260 259 256 253 252 251 252 251 250 247 244 243 244 242 240 241 245 248 252
325 319 323 332 339 342 344 344 333 327 348 14 27 127 179 168 156 157 166 186 202 212 221 230 240 242 234 234 236 235 235 238 236 236 240 242 246 250 252 254 256 256 259 261 262 262 261 260 259 257 256 256 255 255 253 250 250 249 246 245 244 246 251
333 332 333 338 346 348 345 345 342 338 17 46 55 81 157 173 172 171 178 197 210 218 228 237 243 242 235 237 242 242 241 243 242 242 241 241 243 246 248 250 251 251 253 254 252 253 256 259 261 261 260 258 256 256 256 255 254 254 253 251 249 249 250
341 340 343 349 352 349 347 352 358 10 30 48 64 79 97 126 170 187 193 202 214 228 236 237 239 239 238 238 240 243 246 246 247 249 249 247 246 245 245 248 250 251 253 252 250 249 251 254 256 258 259 260 258 256 255 255 256 255 255 255 255 255 254
359 353 354 358 354 350 353 2 14 34 39 39 50 70 86 99 120 157 204 221 227 238 243 243 241 240 243 247 243 238 239 244 250 254 251 250 250 250 250 251 253 255 256 257 260 262 260 256 254 255 256 257 257 257 257 258 257 257 256 255 256 257 257
15 9 6 6 3 1 2 4 14 27 28 24 27 47 65 71 87 112 145 216 248 254 251 254 256 248 246 247 244 241 244 253 260 260 256 256 256 256 253 250 251 255 258 259 261 264 265 262 258 258 259 258 258 258 259 260 261 261 260 259 258 257 257
17 18 17 16 13 10 10 8 9 13 16 12 7 12 26 30 39 65 84 89 16 325 333 350 3 9 321 244 242 245 252 263 268 265 264 264 263 262 262 258 256 257 258 256 252 250 254 259 260 260 261 262 262 261 260 261 261 263 264 264 264 263 261
19 22 21 20 15 10 10 8 5 9 12 10 7 9 15 19 25 29 29 33 18 341 343 353 360 6 10 12 349 291 277 269 263 264 267 265 260 261 264 266 268 270 270 268 264 259 257 258 260 261 260 259 259 260 263 264 263 262 263 265 268 270 270
17 16 12 11 9 6 5 2 3 8 10 9 9 11 18 22 23 22 19 16 7 350 346 345 341 341 341 337 331 321 308 294 283 281 281 280 279 281 280 281 283 281 278 279 279 274 267 261 258 258 258 257 257 257 257 257 258 258 260 261 263 266 270
9 9 3 4 7 7 4 2 4 7 6 6 7 9 19 28 22 20 22 17 10 1 354 349 340 334 330 327 322 317 309 302 298 295 293 293 294 292 290 291 289 283 284 286 284 279 273 267 260 256 253 252 252 251 248 246 246 249 253 256 258 262 265
7 5 4 10 14 15 13 11 12 15 14 13 11 11 17 22 21 22 19 16 15 10 6 7 357 339 329 323 318 315 311 308 306 305 303 301 299 295 293 291 289 289 293 295 293 288 281 273 266 260 255 251 249 249 250 249 248 249 253 257 261 264 264
19 19 22 26 25 23 25 25 23 24 28 30 29 28 28 25 25 27 23 22 22 14 13 24 25 15 354 334 325 321 317 315 313 311 309 304 298 295 294 294 295 297 300 305 307 305 297 285 275 268 262 258 255 254 254 254 254 256 258 259 259 261 262
33 34 31 31 31 31 33 35 34 32 35 40 41 40 38 36 36 34 30 27 26 24 20 13 21 39 47 29 8 352 335 328 323 316 311 307 303 301 300 301 303 303 303 310 317 319 316 307 295 284 272 264 262 262 261 258 256 257 262 264 263 263 262